DW1256 Weather Reports


time (UTC)temp
C
wind
direction
speed
KPH
gust
KPH
rain 1hr
cm
rain 24hr
cm
rain mn
cm
humidity
%
barometer
mb
20260906003713 24 326 4.8 14.5 0.00 0.00 0.00 65 1012.6
20260906003204 24 16 4.8 17.7 0.00 0.00 0.00 65 1012.6
20260906002700 24 349 4.8 17.7 0.00 0.00 0.00 64 1012.7
20260906002153 25 33 6.4 17.7 0.00 0.00 0.00 64 1012.5
20260906001647 25 48 8.0 22.5 0.00 0.00 0.00 63 1012.5
20260906001141 25 32 6.4 24.1 0.00 0.00 0.00 63 1012.5
20260906000636 25 32 6.4 24.1 0.00 0.00 0.00 63 1012.5
20260906000129 25 59 6.4 19.3 0.00 0.00 0.00 62 1012.6
20260905235117 26 58 9.7 25.7 0.00 0.00 0.00 62 1012.4
20260905234613 26 5 9.7 25.7 0.00 0.00 0.00 61 1012.3
20260905234105 26 39 9.7 25.7 0.00 0.00 0.00 61 1012.1
20260905233601 27 40 9.7 19.3 0.00 0.00 0.00 60 1012.2
20260905232547 27 33 11.3 20.9 0.00 0.00 0.00 59 1012.2
20260905232041 27 26 9.7 20.9 0.00 0.00 0.00 59 1012.1
20260905231535 27 28 8.0 20.9 0.00 0.00 0.00 58 1011.9
20260905231029 28 51 8.0 20.9 0.00 0.00 0.00 58 1011.8
20260905230525 28 42 8.0 20.9 0.00 0.00 0.00 58 1011.8
20260905230017 28 28 8.0 20.9 0.00 0.00 0.00 57 1011.7
20260905225516 28 34 9.7 20.9 0.00 0.00 0.00 56 1011.6
20260905225005 28 19 9.7 22.5 0.00 0.00 0.00 56 1011.6
20260905224458 28 87 9.7 22.5 0.00 0.00 0.00 56 1011.7
20260905223955 28 41 11.3 25.7 0.00 0.00 0.00 56 1011.6
20260905223446 29 86 9.7 25.7 0.00 0.00 0.00 55 1011.6
20260905222435 29 56 11.3 20.9 0.00 0.00 0.00 55 1011.6
20260905221931 30 68 11.3 20.9 0.00 0.00 0.00 55 1011.5
20260905221423 30 40 9.7 19.3 0.00 0.00 0.00 54 1011.5
20260905220917 30 53 11.3 22.5 0.00 0.00 0.00 55 1011.3
20260905220410 30 25 11.3 24.1 0.00 0.00 0.00 54 1011.3
20260905215358 31 59 8.0 24.1 0.00 0.00 0.00 54 1011.1
20260905214854 31 34 8.0 22.5 0.00 0.00 0.00 52 1011.1
20260905213335 31 312 8.0 17.7 0.00 0.00 0.00 53 1011.2
20260905212830 31 59 8.0 17.7 0.00 0.00 0.00 52 1011.1
20260905211817 32 18 9.7 22.5 0.00 0.00 0.00 51 1011.1
20260905210805 32 339 8.0 17.7 0.00 0.00 0.00 52 1011.1
20260905210259 32 340 6.4 20.9 0.00 0.00 0.00 52 1011.1
20260905205752 32 346 8.0 22.5 0.00 0.00 0.00 52 1011.0
20260905204740 32 13 8.0 20.9 0.00 0.00 0.00 53 1010.9
20260905204236 32 25 8.0 20.9 0.00 0.00 0.00 53 1010.8
20260905203729 32 46 6.4 17.7 0.00 0.00 0.00 52 1010.8
20260905203223 33 355 8.0 19.3 0.00 0.00 0.00 51 1010.9
20260905202718 33 347 8.0 19.3 0.00 0.00 0.00 51 1011.0
20260905202211 33 28 8.0 19.3 0.00 0.00 0.00 52 1011.0
20260905201706 33 304 8.0 19.3 0.00 0.00 0.00 50 1011.1
20260905200652 33 41 8.0 19.3 0.00 0.00 0.00 50 1011.0
20260905200147 33 28 9.7 19.3 0.00 0.00 0.00 51 1010.9
20260905195642 33 295 8.0 17.7 0.00 0.00 0.00 51 1010.9
20260905195135 33 5 6.4 16.1 0.00 0.00 0.00 51 1010.9
20260905194630 33 298 8.0 19.3 0.00 0.00 0.00 51 1011.0
20260905194123 33 327 8.0 19.3 0.00 0.00 0.00 51 1011.1
20260905193111 33 312 4.8 12.9 0.00 0.00 0.00 49 1011.2
20260905192604 33 355 4.8 12.9 0.00 0.00 0.00 49 1011.2
20260905192059 33 340 4.8 12.9 0.00 0.00 0.00 52 1011.1
20260905191553 33 340 6.4 14.5 0.00 0.00 0.00 51 1011.2
20260905191046 33 42 6.4 14.5 0.00 0.00 0.00 53 1011.2
20260905190545 32 336 6.4 19.3 0.00 0.00 0.00 52 1011.4
20260905190044 33 335 6.4 19.3 0.00 0.00 0.00 51 1011.4
20260905185042 34 34 4.8 12.9 0.00 0.00 0.00 49 1011.4
20260905184041 33 305 6.4 16.1 0.00 0.00 0.00 53 1011.7
20260905183542 33 330 4.8 16.1 0.00 0.00 0.00 51 1011.7
20260905183044 33 341 4.8 11.3 0.00 0.00 0.00 54 1011.6
20260905182540 33 328 4.8 12.9 0.00 0.00 0.00 52 1011.7
20260905181537 33 325 4.8 16.1 0.00 0.00 0.00 51 1011.7
20260905180537 32 355 4.8 9.7 0.00 0.00 0.00 52 1011.7
20260905180039 33 17 1.6 9.7 0.00 0.00 0.00 54 1011.7
20260905175538 33 300 3.2 9.7 0.00 0.00 0.00 52 1011.8
20260905175038 32 332 4.8 16.1 0.00 0.00 0.00 53 1011.8
20260905174538 32 309 4.8 16.1 0.00 0.00 0.00 53 1011.8
20260905174039 32 296 4.8 11.3 0.00 0.00 0.00 54 1011.8
20260905173027 32 343 3.2 12.9 0.00 0.00 0.00 54 1011.9
20260905172015 32 355 4.8 12.9 0.00 0.00 0.00 52 1012.0
20260905171003 32 290 3.2 12.9 0.00 0.00 0.00 51 1012.1
20260905170459 32 351 3.2 9.7 0.00 0.00 0.00 51 1012.1
20260905165953 32 325 4.8 9.7 0.00 0.00 0.00 52 1012.2
20260905165447 32 306 3.2 9.7 0.00 0.00 0.00 53 1012.2
20260905164939 32 257 3.2 9.7 0.00 0.00 0.00 54 1012.2
20260905164433 32 329 4.8 9.7 0.00 0.00 0.00 53 1012.2
20260905163927 32 0 4.8 11.3 0.00 0.00 0.00 54 1012.3
20260905163422 32 286 4.8 12.9 0.00 0.00 0.00 54 1012.3
20260905162915 31 335 4.8 12.9 0.00 0.00 0.00 55 1012.3
20260905162409 31 311 6.4 12.9 0.00 0.00 0.00 55 1012.3
20260905161903 31 310 8.0 14.5 0.00 0.00 0.00 53 1012.3
20260905161357 31 285 8.0 16.1 0.00 0.00 0.00 53 1012.3
20260905160852 32 292 8.0 16.1 0.00 0.00 0.00 51 1012.3
20260905155839 31 315 6.4 19.3 0.00 0.00 0.00 52 1012.3
20260905155334 31 307 4.8 11.3 0.00 0.00 0.00 56 1012.2
20260905154829 31 312 4.8 12.9 0.00 0.00 0.00 56 1012.1
20260905153816 31 329 4.8 17.7 0.00 0.00 0.00 55 1012.1
20260905153314 31 289 1.6 9.7 0.00 0.00 0.00 56 1012.2
20260905152803 31 313 1.6 9.7 0.00 0.00 0.00 56 1012.2
20260905152257 31 302 3.2 11.3 0.00 0.00 0.00 58 1012.2
20260905151752 31 275 3.2 11.3 0.00 0.00 0.00 57 1012.2
20260905151245 30 0 3.2 9.7 0.00 0.00 0.00 58 1012.1
20260905150739 30 283 4.8 9.7 0.00 0.00 0.00 59 1012.2
20260905150234 30 292 3.2 8.0 0.00 0.00 0.00 59 1012.1
20260905145727 30 328 3.2 8.0 0.00 0.00 0.00 60 1012.1
20260905144715 29 315 3.2 6.4 0.00 0.00 0.00 60 1012.0
20260905144210 30 5 3.2 8.0 0.00 0.00 0.00 60 1012.0
20260905143704 29 13 3.2 8.0 0.00 0.00 0.00 61 1011.9
20260905143156 29 346 3.2 8.0 0.00 0.00 0.00 62 1011.9
20260905142148 28 341 3.2 9.7 0.00 0.00 0.00 63 1012.1
20260905141649 28 52 3.2 9.7 0.00 0.00 0.00 64 1012.2
20260905141149 28 313 4.8 9.7 0.00 0.00 0.00 63 1012.3
20260905140146 28 336 3.2 6.4 0.00 0.00 0.00 64 1012.1
20260905135643 28 331 1.6 8.0 0.00 0.00 0.00 65 1012.1
20260905135139 27 0 3.2 8.0 0.00 0.00 0.00 65 1012.1
20260905134641 27 323 1.6 4.8 0.00 0.00 0.00 65 1012.0
20260905133640 27 274 0.0 0.0 0.00 0.00 0.00 65 1011.9
20260905133142 27 273 0.0 0.0 0.00 0.00 0.00 66 1011.9
20260905132639 26 274 0.0 0.0 0.00 0.00 0.00 67 1011.9
20260905131638 26 274 0.0 0.0 0.00 0.00 0.00 70 1011.8
20260905131136 26 274 0.0 0.0 0.00 0.00 0.00 73 1011.8
20260905130637 25 274 0.0 0.0 0.00 0.00 0.00 74 1011.8
20260905130137 25 274 0.0 0.0 0.00 0.00 0.00 74 1011.8
20260905125634 25 274 0.0 0.0 0.00 0.00 0.00 74 1011.8
20260905124629 25 274 0.0 0.0 0.00 0.00 0.00 74 1011.8
20260905124129 24 273 0.0 0.0 0.00 0.00 0.00 74 1011.8
20260905123125 24 273 0.0 0.0 0.00 0.00 0.00 74 1011.7
20260905122621 24 273 0.0 0.0 0.00 0.00 0.00 73 1011.7
20260905122121 24 273 0.0 0.0 0.00 0.00 0.00 73 1011.7
20260905121622 24 273 0.0 0.0 0.00 0.00 0.00 73 1011.7
20260905121120 23 273 0.0 0.0 0.00 0.00 0.00 73 1011.7
20260905120620 23 273 0.0 0.0 0.00 0.00 0.00 73 1011.6
20260905120115 23 274 0.0 0.0 0.00 0.00 0.00 73 1011.6
20260905115620 23 273 0.0 0.0 0.00 0.00 0.00 73 1011.6
20260905115115 23 273 0.0 0.0 0.00 0.00 0.00 73 1011.5
20260905114614 23 273 0.0 0.0 0.00 0.00 0.00 72 1011.5
20260905114113 23 273 0.0 0.0 0.00 0.00 0.00 72 1011.4
20260905113610 24 273 0.0 0.0 0.00 0.00 0.00 72 1011.4
20260905113110 24 274 0.0 0.0 0.00 0.00 0.00 72 1011.5
20260905112610 24 273 0.0 0.0 0.00 0.00 0.00 72 1011.4
20260905112109 24 273 0.0 0.0 0.00 0.00 0.00 72 1011.4
20260905111608 24 273 0.0 0.0 0.00 0.00 0.00 72 1011.4
20260905111110 24 274 0.0 0.0 0.00 0.00 0.00 72 1011.3
20260905110612 24 273 0.0 0.0 0.00 0.00 0.00 72 1011.3
20260905110109 24 273 0.0 0.0 0.00 0.00 0.00 72 1011.3
20260905105607 24 273 0.0 0.0 0.00 0.00 0.00 71 1011.2
20260905105104 24 274 0.0 0.0 0.00 0.00 0.00 71 1011.3
20260905104604 24 274 0.0 0.0 0.00 0.00 0.00 71 1011.2
20260905104106 24 273 0.0 1.6 0.00 0.00 0.00 71 1011.3
20260905103605 24 273 0.0 1.6 0.00 0.00 0.00 71 1011.3
20260905103101 24 273 0.0 1.6 0.00 0.00 0.00 71 1011.4
20260905102602 24 273 0.0 0.0 0.00 0.00 0.00 71 1011.3
20260905101602 25 273 0.0 0.0 0.00 0.00 0.00 71 1011.5
20260905101103 25 273 0.0 0.0 0.00 0.00 0.00 71 1011.5
20260905100605 25 273 0.0 0.0 0.00 0.00 0.00 71 1011.4
20260905095602 25 273 0.0 0.0 0.00 0.00 0.00 71 1011.2
20260905095102 25 273 0.0 0.0 0.00 0.00 0.00 71 1011.3
20260905094602 25 274 0.0 1.6 0.00 0.00 0.00 71 1011.2
20260905094101 25 274 0.0 1.6 0.00 0.00 0.00 71 1011.2
20260905093601 25 274 0.0 1.6 0.00 0.00 0.00 71 1011.3
20260905093103 25 274 0.0 1.6 0.00 0.00 0.00 71 1011.4
20260905092602 25 274 0.0 1.6 0.00 0.00 0.00 71 1011.3
20260905092102 25 274 0.0 4.8 0.00 0.00 0.00 71 1011.3
20260905091603 25 273 0.0 4.8 0.00 0.00 0.00 71 1011.4
20260905090602 25 274 0.0 0.0 0.00 0.00 0.00 71 1011.3
20260905090103 25 274 0.0 0.0 0.00 0.00 0.00 71 1011.3
20260905085601 25 274 0.0 3.2 0.00 0.00 0.00 71 1011.3
20260905085101 25 275 1.6 4.8 0.00 0.00 0.00 71 1011.2
20260905084602 25 275 1.6 4.8 0.00 0.00 0.00 71 1011.2
20260905084102 25 274 1.6 6.4 0.00 0.00 0.00 71 1011.3
20260905083603 25 274 1.6 6.4 0.00 0.00 0.00 71 1011.3
20260905082559 25 283 0.0 0.0 0.00 0.00 0.00 71 1011.3
20260905082057 25 311 0.0 4.8 0.00 0.00 0.00 71 1011.2
20260905081559 25 291 1.6 4.8 0.00 0.00 0.00 71 1011.2
20260905081101 25 291 1.6 4.8 0.00 0.00 0.00 71 1011.1
20260905080600 25 291 1.6 4.8 0.00 0.00 0.00 71 1011.1
20260905080100 25 291 1.6 4.8 0.00 0.00 0.00 71 1011.1
20260905075600 25 291 1.6 4.8 0.00 0.00 0.00 72 1011.0
20260905075100 25 292 1.6 4.8 0.00 0.00 0.00 72 1011.1
20260905074601 25 300 1.6 6.4 0.00 0.00 0.00 72 1011.1
20260905074058 25 278 1.6 6.4 0.00 0.00 0.00 72 1011.0
20260905073057 25 281 1.6 6.4 0.00 0.00 0.00 72 1011.0
20260905072554 25 265 1.6 6.4 0.00 0.00 0.00 72 1010.9
20260905072055 25 269 1.6 6.4 0.00 0.00 0.00 71 1011.0
20260905071555 25 307 0.0 3.2 0.00 0.00 0.00 71 1011.2
20260905071057 25 307 0.0 3.2 0.00 0.00 0.00 71 1011.2
20260905070553 25 307 0.0 3.2 0.00 0.00 0.00 71 1011.3
20260905070055 25 307 0.0 0.0 0.00 0.00 0.00 71 1011.3
20260905065551 25 307 0.0 0.0 0.00 0.00 0.00 71 1011.3
20260905065052 25 307 0.0 0.0 0.00 0.00 0.00 71 1011.4
20260905064551 25 307 0.0 0.0 0.00 0.00 0.00 71 1011.3
20260905064051 25 307 0.0 0.0 0.00 0.00 0.00 70 1011.4
20260905063550 25 307 0.0 0.0 0.00 0.00 0.00 70 1011.4
20260905063050 25 307 0.0 0.0 0.00 0.00 0.00 70 1011.5
20260905062551 25 307 0.0 0.0 0.00 0.00 0.00 70 1011.5
20260905062051 25 307 0.0 0.0 0.00 0.00 0.00 70 1011.5
20260905061551 25 307 0.0 0.0 0.00 0.00 0.00 70 1011.6
20260905061047 25 307 0.0 0.0 0.00 0.00 0.00 70 1011.6
20260905060547 25 307 0.0 0.0 0.00 0.00 0.00 70 1011.7
20260905060046 25 307 0.0 0.0 0.00 0.00 0.00 70 1011.7
20260905055546 25 307 0.0 0.0 0.00 0.00 0.00 69 1011.7
20260905055046 25 307 0.0 0.0 0.00 0.00 0.00 69 1011.7
20260905054545 26 307 0.0 0.0 0.00 0.00 0.00 69 1011.7
20260905054046 26 307 0.0 0.0 0.00 0.00 0.00 69 1011.7
20260905053546 26 307 0.0 0.0 0.00 0.00 0.00 69 1011.8
20260905053049 26 307 0.0 0.0 0.00 0.00 0.00 69 1011.8
20260905052543 26 307 0.0 0.0 0.00 0.00 0.00 69 1011.8
20260905052043 26 307 0.0 0.0 0.00 0.00 0.00 69 1011.9
20260905051543 26 307 0.0 0.0 0.00 0.00 0.00 69 1012.0
20260905050043 26 307 0.0 0.0 0.00 0.00 0.00 68 1012.0
20260905045542 26 307 0.0 0.0 0.00 0.00 0.00 68 1012.1
20260905045040 26 307 0.0 0.0 0.00 0.00 0.00 68 1012.1
20260905044542 26 307 0.0 0.0 0.00 0.00 0.00 68 1011.9
20260905043540 26 307 0.0 0.0 0.00 0.00 0.00 68 1011.9
20260905043042 26 307 0.0 0.0 0.00 0.00 0.00 68 1012.0
20260905042540 26 307 0.0 0.0 0.00 0.00 0.00 68 1012.1
20260905042038 27 307 0.0 0.0 0.00 0.00 0.00 68 1012.0
20260905041539 27 307 0.0 0.0 0.00 0.00 0.00 67 1012.0
20260905041038 27 307 0.0 0.0 0.00 0.00 0.00 68 1012.1
20260905040539 27 307 0.0 0.0 0.00 0.00 0.00 67 1012.1
20260905040039 27 308 0.0 0.0 0.00 0.00 0.00 67 1012.1
20260905035536 27 307 0.0 0.0 0.00 0.00 0.00 67 1012.1
20260905035036 27 307 0.0 0.0 0.00 0.00 0.00 67 1012.1
20260905034537 27 308 0.0 0.0 0.00 0.00 0.00 67 1012.1
20260905034032 27 308 0.0 0.0 0.00 0.00 0.00 67 1012.0
20260905033533 27 308 0.0 0.0 0.00 0.00 0.00 67 1012.1
20260905033033 27 308 0.0 0.0 0.00 0.00 0.00 67 1012.1
20260905032528 27 308 0.0 0.0 0.00 0.00 0.00 67 1012.2
20260905032021 27 308 0.0 0.0 0.00 0.00 0.00 67 1012.2
20260905031514 27 307 0.0 0.0 0.00 0.00 0.00 67 1012.2
20260905030504 27 307 0.0 0.0 0.00 0.00 0.00 67 1012.0
20260905024945 27 308 0.0 0.0 0.00 0.00 0.00 66 1011.8
20260905024441 27 308 0.0 0.0 0.00 0.00 0.00 66 1011.8
20260905023940 27 307 0.0 0.0 0.00 0.00 0.00 66 1011.8
20260905023440 27 307 0.0 0.0 0.00 0.00 0.00 66 1011.8
20260905022939 27 308 0.0 0.0 0.00 0.00 0.00 66 1012.0
20260905021936 28 308 0.0 0.0 0.00 0.00 0.00 66 1011.8
20260905021438 28 307 0.0 0.0 0.00 0.00 0.00 65 1011.8
20260905020938 28 307 0.0 0.0 0.00 0.00 0.00 65 1011.8
20260905015936 28 307 0.0 0.0 0.00 0.00 0.00 65 1011.8
20260905015436 28 307 0.0 0.0 0.00 0.00 0.00 65 1011.8
20260905014936 28 307 0.0 0.0 0.00 0.00 0.00 64 1011.7
20260905014433 28 307 0.0 0.0 0.00 0.00 0.00 64 1011.6
20260905013933 28 307 0.0 0.0 0.00 0.00 0.00 64 1011.5
20260905013434 28 307 0.0 0.0 0.00 0.00 0.00 64 1011.5
20260905012932 28 307 0.0 0.0 0.00 0.00 0.00 63 1011.5
20260905012432 28 307 0.0 0.0 0.00 0.00 0.00 63 1011.5
20260905011932 29 307 0.0 0.0 0.00 0.00 0.00 63 1011.5
20260905011430 29 307 0.0 0.0 0.00 0.00 0.00 63 1011.4
20260905010923 29 307 0.0 0.0 0.00 0.00 0.00 63 1011.4
20260905010417 29 307 0.0 0.0 0.00 0.00 0.00 62 1011.4
20260905005914 30 307 0.0 0.0 0.00 0.00 0.00 61 1011.4
20260905005405 30 307 0.0 0.0 0.00 0.00 0.00 60 1011.2
20260905004859 30 307 0.0 0.0 0.00 0.00 0.00 59 1011.2
20260905004354 30 307 0.0 0.0 0.00 0.00 0.00 58 1011.2